Regional Weather Roundup
Issued by NWS

Home | Current Version | Previous Version | Text Only | Print | Product List | Glossary Off
Versions: 1 2 3 4 5 6 7 8 9 10 11 12 13 14 15 16 17 18 19 20 21 22 23 24 25 26 27 28 29 30 31 32 33 34 35 36 37 38 39 40 41 42 43 44 45 46 47 48 49 50

000
ASUS43 KLMK 050410
RWRKY
KENTUCKY REGIONAL WEATHER ROUNDUP
NATIONAL WEATHER SERVICE LOUISVILLE KY
1200 AM EDT THU MAY 05 2016

NOTE "FAIR" INDICATES FEW OR NO CLOUDS BELOW 12,000 FEET
WITH NO SIGNIFICANT WEATHER AND/OR OBSTRUCTIONS TO VISIBILITY.

KYZ001>023-026-027-061>063-070>075-050500-
WESTERN AND SOUTH CENTRAL KENTUCKY

CITY           SKY/WX    TMP DP  RH WIND       PRES   REMARKS
PADUCAH        CLEAR     52  40  63 NW3       29.88S
HENDERSON      CLOUDY    54  41  62 NW3       29.85F
OWENSBORO      MOCLDY    53  42  66 NW7       29.86S
HOPKINSVILLE   PTCLDY    53  42  65 VRB5      29.86S
BOWLING GREEN  PTCLDY    53  41  63 NW6       29.85R
GLASGOW        PTCLDY    50  42  75 NW6       29.83S
$$

KYZ024-025-028>034-038-045-046-053-050500-
NORTH CENTRAL KENTUCKY

CITY           SKY/WX    TMP DP  RH WIND       PRES   REMARKS
LOUISVILLE/SDF PTCLDY    49  39  68 NW9       29.81S
LOUISVILLE/LOU CLEAR     50  37  61 NW10      29.82R
FORT KNOX      MOCLDY    48  38  68 NW6       29.81R
$$

KYZ035>037-039>044-047>052-055>060-089>105-050500-
NORTHEAST KENTUCKY

CITY           SKY/WX    TMP DP  RH WIND       PRES   REMARKS
LEXINGTON      CLOUDY    48  35  60 NW10      29.79S
COVINGTON      MOCLDY    45  35  68 NW7       29.76F
FRANKFORT      CLOUDY    49  37  63 NW6       29.79S
$$

KYZ054-064>069-076>088-106>120-050500-
SOUTHEAST KENTUCKY

CITY           SKY/WX    TMP DP  RH WIND       PRES   REMARKS
JACKSON        CLOUDY    46  41  82 NW6       29.75F
LONDON         CLEAR     47  42  83 CALM      29.77R
SOMERSET       CLOUDY    46  46 100 CALM      29.80S
MIDDLESBORO    CLOUDY    46  46 100 CALM      29.78S
MONTICELLO     CLOUDY    49  46  90 W14       29.82F
$$





USA.gov is the U.S. government's official web portal to all federal, state and local government web resources and services.